Hourly Data Report for October 19, 2016

All times are specified in Local Standard Time (LST). Add 1 hour to adjust for Daylight Saving Time where and when it is observed.

QIKIQTARJUAQ A
NUNAVUT

67°32'48.000" N
64°01'54.000" W
5.50 m
2400577
YVM

Download Data

Hourly Data (October 2016)
Hourly Data Report for October 19, 2016
Temp Definition
°C
Dew Point Temp Definition
°C
Rel Hum Definition
%
Wind Dir Definition
10's deg

Wind Spd Definition
km/h
Visibility Definition
km
Stn Press Definition
kPa
Hmdx Definition


Wind Chill Definition


Weather Definition


TIME
00:00 Legend Double Dagger -11.1 -15.9 68 13 8 16.1 101.51   -16 LegendNANA
01:00 Legend Double Dagger -11.0 -16.6 64 13 9 16.1 101.49   -16 LegendNANA
02:00 Legend Double Dagger -9.6 -16.2 59 LegendMM 4 16.1 101.49   -12 LegendNANA
03:00 Legend Double Dagger -11.9 -16.6 69 9 8 16.1 101.47   -17 LegendNANA
04:00 Legend Double Dagger -7.4 -16.2 50 32 13 16.1 101.44   -13 LegendNANA
05:00 Legend Double Dagger -11.6 -18.1 59 12 8 16.1 101.38   -16 LegendNANA
06:00 Legend Double Dagger -12.0 -17.3 65 19 11 16.1 101.32   -18 LegendNANA
07:00 Legend Double Dagger -11.2 -17.9 58 20 4 16.1 101.31   -14 LegendNANA
08:00 Legend Double Dagger -8.0 -15.7 54 29 15 16.1 101.27   -14 LegendNANA
09:00 Legend Double Dagger -7.5 -16.5 49 26 13 16.1 101.21   -13 LegendNANA
10:00 Legend Double Dagger -6.4 -14.5 53 31 13 16.1 101.16   -12 LegendNANA
11:00 Legend Double Dagger -8.3 -17.3 49 LegendMM 5 16.1 101.11   -11 LegendNANA
12:00 Legend Double Dagger -5.5 -16.3 43 35 17 16.1 101.06   -12 LegendNANA
13:00 Legend Double Dagger -5.0 -12.0 58 33 30 16.1 101.04   -13 LegendNANA
14:00 Legend Double Dagger -4.9 -9.5 70 31 39 16.1 101.03   -14 LegendNANA
15:00 Legend Double Dagger -5.6 -8.1 83 32 34 11.3 101.10   -14 Snow
16:00 Legend Double Dagger -4.3 -8.5 73 30 41 16.1 101.05   -13 Snow
17:00 Legend Double Dagger -4.1 -7.3 79 32 37 16.1 101.11   -13 Snow
18:00 Legend Double Dagger -4.6 -8.6 74 32 24 12.9 101.17   -12 Snow
19:00 Legend Double Dagger -4.4 -9.3 69 32 22 16.1 101.17   -11 LegendNANA
20:00 Legend Double Dagger -4.1 -9.5 66 32 22 16.1 101.15   -11 LegendNANA
21:00 Legend Double Dagger -3.9 -9.8 64 34 24 16.1 101.10   -11 LegendNANA
22:00 Legend Double Dagger -3.8 -10.7 59 33 21 16.1 101.08   -10 LegendNANA
23:00 Legend Double Dagger -3.4 -10.3 59 34 18 16.1 101.05   -9 LegendNANA

Notes on Data Quality.

Legend

  • E = Estimated
  • M = Missing
  • NA = Not Available
  • ‡ = Partner data that is not subject to review by the National Climate Archives
Date modified: